Weather in Napolnoye

Russia / Chuvash Republic     55°07′32″N   46°21′05″E
temp.,
°C
wind,
m/s
gust,
m/s
humid.,
%
clouds,
%
prec.,
mm/h
press.,
hPa
HPBL,
m
8 august, mon
mon800:00+19sse115995 0.0 101911
03:00+18se116499 0.0 102011
06:00+20se11656 0.0 102018
09:00+25ese22485 0.0 1020390
12:00+29s233630 0.0 10202019
15:00+30wsw1132100 0.0 10192768
18:00+26e465221 0.0 1019150
21:00+20sse116737 0.0 102015
9 august, tue
tue900:00+20sse336633 0.0 102030
03:00+18nne00705 0.0 102011
06:00+21s116759 0.0 102021
09:00+26wsw114898 0.0 1020543
12:00+29s2139100 0.0 10191266
15:00+30s11355 0.0 10182171
18:00+28s22475 0.0 101727
21:00+19n7137612 0.0 1019301
10 august, wed
wed1000:00+17nw019083 0.0 101913
03:00+16e1187100 0.0 101814
06:00+18nne237999 0.0 1018146
09:00+22ne336471 0.2 1018506
12:00+24n3259100 0.0 1017418
15:00+19n4691100 1.6 1017280
18:00+19n4691100 2.7 1018432
21:00+16nnw3797100 2.8 1019277
11 august, thu
thu1100:00+15nnw2698100 0.0 1020174
03:00+14n2396100 0.0 102150
06:00+14n2493100 0.0 1022140
09:00+18nne347096 0.0 1023584
12:00+22n34475 0.0 10231506
15:00+23n33430 0.0 10231766
18:00+22n23560 0.0 1023103
21:00+16nne00690 0.0 102311
12 august, fri
fri1200:00+14ssw11777 0.0 102410
03:00+14wsw12785 0.0 102410
06:00+15wsw22744 0.0 102575
09:00+21w34536 0.0 1025639
12:00+24wnw454057 0.0 10241639
15:00+26wnw453738 0.0 10231729
18:00+23nw235075 0.0 102259
21:00+17wsw116258 0.0 102311